sat.trackr.live / text

‹ back to catalog

IRIDE-MS1-EAGLET 2-2

NORAD 66696 · 2025-276AG

PAYLOAD ACTIVE UNKNOWN

§ Identity

Operator
Country
IT
Launch date
2025-11-28
Launch site
AFWTR
Launch vehicle
Mass (kg)
RCS (m²)

External: N2YO · Heavens-Above · Gunter

§ Orbital elements

Epoch: 2026-09-20T10:18:56.098944Z

Period
94.65 min
Inclination
97.4106°
Eccentricity
0.0004830
Mean motion
15.21473214 rev/d
Perigee alt
498.1 km
Apogee alt
504.7 km
Semi-major
6,879.5 km
B*
1.5582e-4
RAAN
335.5266°
Arg perigee
50.6714°
Mean anomaly
309.4949°
Rev number
4,490

§ Raw data

IRIDE-MS1-EAGLET 2-21 66696U 25276AG  26263.42981596  .00003434  00000+0  15582-3 0  99952 66696  97.4106 335.5266 0004830  50.6714 309.4949 15.21473214 44905

JSON: /api/v1/satellites/66696 · /tle

For live sub-satellite position, see the globe view (requires WebGL).

§ Visibility from observer

Set your observer location to see the next 7 days of passes ≥ 10°. The values pass through the URL so the page stays shareable.

No JS? Fill the form by hand. The geolocation button needs JavaScript.